TimeCDT,TemperatureF,Dew PointF,Humidity,Sea Level PressureIn,VisibilityMPH,Wind Direction,Wind SpeedMPH,Gust SpeedMPH,PrecipitationIn,Events,Conditions,WindDirDegrees,DateUTC
12:39 AM,19.4,8.6,63,30.00,7.0,NW,10.4,-,0.00,Snow,Light Snow,310,2013-03-21 05:39:00
1:01 AM,19.4,8.6,63,30.00,8.0,NW,11.5,-,0.00,Snow,Light Snow,310,2013-03-21 06:01:00
1:31 AM,19.4,6.8,58,30.00,10.0,NW,8.1,-,0.00,,Overcast,310,2013-03-21 06:31:00
1:53 AM,19.0,9.0,65,30.03,4.0,NW,9.2,18.4,0.00,Snow,Light Snow,310,2013-03-21 06:53:00
2:19 AM,19.4,10.4,68,30.00,2.5,NW,10.4,-,0.00,Snow,Light Snow,310,2013-03-21 07:19:00
2:26 AM,19.4,8.6,63,30.00,9.0,WNW,9.2,-,0.00,,Overcast,300,2013-03-21 07:26:00
2:53 AM,19.0,10.0,68,30.03,9.0,NW,9.2,-,0.00,,Overcast,310,2013-03-21 07:53:00
3:05 AM,19.4,10.4,68,29.99,4.0,WNW,11.5,-,0.00,Snow,Light Snow,300,2013-03-21 08:05:00
3:14 AM,19.4,10.4,68,29.99,8.0,WNW,10.4,-,0.00,Snow,Light Snow,300,2013-03-21 08:14:00
3:23 AM,19.4,10.4,68,29.99,9.0,WNW,11.5,-,0.00,,Overcast,300,2013-03-21 08:23:00
3:49 AM,17.6,8.6,68,29.99,10.0,West,11.5,-,0.00,,Overcast,270,2013-03-21 08:49:00
3:53 AM,18.0,7.0,62,30.02,10.0,West,11.5,-,0.00,,Overcast,270,2013-03-21 08:53:00
4:16 AM,17.6,6.8,63,29.98,4.0,West,11.5,-,0.00,Snow,Light Snow,270,2013-03-21 09:16:00
4:53 AM,18.0,7.0,62,30.02,6.0,West,10.4,-,0.00,Snow,Light Snow,280,2013-03-21 09:53:00
5:04 AM,17.6,6.8,63,29.99,9.0,West,11.5,-,0.00,,Overcast,280,2013-03-21 10:04:00
5:22 AM,17.6,6.8,63,29.99,10.0,West,13.8,-,0.00,,Overcast,270,2013-03-21 10:22:00
5:48 AM,15.8,6.8,68,29.99,10.0,West,9.2,-,0.00,,Scattered Clouds,270,2013-03-21 10:48:00
5:53 AM,15.1,6.1,68,30.02,10.0,West,9.2,-,0.00,,Partly Cloudy,270,2013-03-21 10:53:00
6:53 AM,14.0,7.0,74,30.04,10.0,West,6.9,-,N/A,,Clear,280,2013-03-21 11:53:00
7:53 AM,17.1,8.1,68,30.04,10.0,WNW,9.2,-,N/A,,Clear,290,2013-03-21 12:53:00
8:53 AM,19.9,9.0,62,30.05,10.0,WNW,11.5,-,N/A,,Clear,300,2013-03-21 13:53:00
9:53 AM,23.0,10.0,58,30.05,10.0,WNW,12.7,-,N/A,,Clear,290,2013-03-21 14:53:00
10:53 AM,-9999,-9999,N/A,30.03,-9999.0,North,-9999.0,-,N/A,,Unknown,0,2013-03-21 15:53:00
11:53 AM,-9999,-9999,N/A,30.02,-9999.0,North,-9999.0,-,N/A,,Unknown,0,2013-03-21 16:53:00
12:53 PM,30.9,10.0,42,30.05,10.0,West,11.5,-,N/A,,Unknown,280,2013-03-21 17:53:00
1:53 PM,33.1,10.9,40,30.04,10.0,NW,9.2,-,N/A,,Clear,310,2013-03-21 18:53:00
2:53 PM,33.1,10.9,40,30.03,10.0,NNW,8.1,-,N/A,,Clear,340,2013-03-21 19:53:00
3:53 PM,33.1,12.0,42,30.02,10.0,NW,9.2,16.1,N/A,,Clear,320,2013-03-21 20:53:00
4:53 PM,34.0,12.9,42,30.02,10.0,North,8.1,-,N/A,,Clear,360,2013-03-21 21:53:00
5:53 PM,32.0,14.0,48,30.02,10.0,NNW,6.9,-,N/A,,Clear,340,2013-03-21 22:53:00
6:53 PM,28.9,15.1,56,30.03,10.0,North,4.6,-,N/A,,Clear,350,2013-03-21 23:53:00
7:53 PM,25.0,15.1,66,30.03,10.0,Calm,Calm,-,N/A,,Clear,0,2013-03-22 00:53:00
8:53 PM,21.9,15.1,75,30.05,10.0,Calm,Calm,-,N/A,,Clear,0,2013-03-22 01:53:00
9:53 PM,24.1,15.1,69,30.05,10.0,Calm,Calm,-,N/A,,Clear,0,2013-03-22 02:53:00
10:53 PM,21.9,16.0,78,30.03,10.0,SW,3.5,-,N/A,,Clear,230,2013-03-22 03:53:00
11:53 PM,23.0,16.0,74,30.03,10.0,West,3.5,-,N/A,,Clear,260,2013-03-22 04:53:00